カタログに戻る

APSTAR 9

運用中通信GEO
NORAD 40982·PAYLOAD·🇨🇳 China

打ち上げ Oct 16, 2015 から Xichang Satellite Launch Center

Loading…

TLE

最新Source: Space-Track

元期: Sep 14, 2026, 12:46 UTC

1 40982U 15059A   26257.53197539 -.00000274  00000-0  00000-0 0  9991
2 40982   0.0352  33.5885 0002483 144.6878 148.7586  1.00270691 40001

AllMySatでAPSTAR 9をリアルタイム追跡

Download on the App Store